GMT,Max TemperatureF,Mean TemperatureF,Min TemperatureF,Max Dew PointF,MeanDew PointF,Min DewpointF,Max Humidity, Mean Humidity, Min Humidity, Max Sea Level PressureIn, Mean Sea Level PressureIn, Min Sea Level PressureIn, Max VisibilityMiles, Mean VisibilityMiles, Min VisibilityMiles, Max Wind SpeedMPH, Mean Wind SpeedMPH, Max Gust SpeedMPH,PrecipitationIn, CloudCover, Events, WindDirDegrees
2013-10-1,57,54,50,48,45,43,82,73,63,30.04,30.01,29.98,6,6,6,26,17,36,0.00,2,,161
2013-10-2,57,54,50,46,44,41,77,70,63,29.98,29.93,29.89,6,6,6,37,26,48,0.00,3,,162
2013-10-3,55,54,53,50,48,45,88,81,72,29.89,29.78,29.65,6,5,2,37,30,51,0.00,5,Rain,152
2013-10-4,57,54,51,54,51,46,94,87,77,29.65,29.52,29.44,6,5,1,36,26,45,0.00,6,Rain,187
2013-10-5,55,52,50,48,46,43,88,80,72,29.92,29.87,29.77,6,6,3,33,13,,0.00,4,Rain,229
2013-10-6,57,55,53,54,51,48,88,86,77,29.83,29.78,29.74,6,5,1,31,27,43,0.00,6,Rain,225
2013-10-7,59,56,53,55,53,50,94,89,88,29.83,29.81,29.77,6,4,1,29,20,,0.00,7,Rain,222
2013-10-8,57,54,50,54,50,46,94,88,82,29.86,29.82,29.77,6,5,0,26,14,,0.00,6,Fog-Rain,246
2013-10-9,50,46,42,43,40,36,87,78,66,30.06,29.79,29.65,6,6,2,33,20,47,0.00,4,Rain,312
2013-10-10,46,42,37,41,37,34,87,76,62,30.45,30.29,30.09,6,6,6,29,20,45,0.00,4,Rain,349
2013-10-11,53,44,35,43,39,30,87,79,62,30.57,30.52,30.45,6,6,6,8,4,,0.00,6,,247
2013-10-12,51,46,42,45,42,39,87,80,76,30.57,30.53,30.42,6,6,6,14,5,,0.00,7,,71
2013-10-13,53,48,44,48,44,41,87,84,76,30.42,30.26,30.18,6,6,1,20,13,,0.00,7,Fog-Rain,58
2013-10-14,50,44,39,46,44,37,93,89,82,30.18,30.12,30.06,6,5,0,9,5,,0.00,6,Fog-Rain,53
2013-10-15,50,46,41,46,43,39,93,88,81,30.06,30.01,29.98,6,6,3,12,4,,0.00,6,,76
2013-10-16,48,45,42,45,41,37,93,82,71,29.98,29.90,29.77,6,6,1,13,6,,0.00,7,Rain,89
2013-10-17,46,40,35,41,36,28,87,76,61,30.04,29.86,29.74,6,6,6,20,11,,0.00,4,Rain,35
2013-10-18,48,39,30,43,34,28,93,78,61,30.09,30.06,30.01,6,6,6,12,5,18,0.00,3,Rain,130
2013-10-19,48,46,44,45,40,36,87,80,66,30.01,29.82,29.71,6,5,1,30,18,39,0.00,7,Rain,95
2013-10-20,50,48,46,46,44,41,93,86,81,29.71,29.65,29.62,6,5,1,31,27,41,0.00,8,Rain,95
2013-10-21,53,52,50,50,48,46,94,88,82,29.62,29.52,29.42,6,4,1,26,22,,0.00,8,Rain,138
2013-10-22,53,52,50,50,48,46,94,89,82,29.42,29.12,29.03,6,5,1,25,19,,0.00,7,Rain,187
2013-10-23,53,50,48,50,48,43,94,88,82,29.03,28.97,28.91,6,5,2,28,14,39,0.00,5,Rain,192
2013-10-24,50,47,44,46,41,36,93,79,62,29.83,29.46,28.97,6,6,1,29,21,41,0.00,5,Rain,271
2013-10-25,50,44,39,46,42,34,93,81,71,29.83,29.58,29.09,6,6,1,25,13,37,0.00,5,Rain,148
2013-10-26,50,47,44,46,42,37,93,82,71,29.30,29.17,28.94,6,6,1,23,10,,0.00,7,Rain,233
2013-10-27,51,48,42,45,43,39,87,84,76,28.94,28.81,28.65,6,6,4,18,13,,0.00,3,Rain,179
2013-10-28,51,45,39,45,40,36,93,83,71,29.06,28.83,28.68,6,6,4,8,5,,0.00,3,Rain,258
2013-10-29,50,44,39,43,40,34,93,82,76,29.68,29.35,29.06,6,6,6,16,8,,0.00,3,Rain,299
2013-10-30,51,43,35,45,39,30,87,80,76,29.77,29.62,29.39,6,6,5,34,10,48,0.00,3,Rain,171
2013-10-31,50,46,42,43,40,36,87,77,66,29.47,29.40,29.27,6,6,1,28,20,39,0.00,2,Rain,214